User: anonymous
Location: Unspecified
(0.0000°N, 0.0000°E)
Time: 07:57:26
(UTC+02:00)
Language:

Resurs 01 Rocket - Orbit

View from above orbital plane
View from above orbital plane
View from above satellite
View from above satellite

Ground track
Ground track

The orbit data is extracted from the following two-line orbital elements,

1 23343U 94074B   14272.68021468  .00000586  00000-0  92439-4 0  1307
2 23343 098.2266 278.4586 0007025 019.8320 106.4188 14.76203602 70519
Epoch (UTC): 29 September 2014 16:19:30
Eccentricity: 0.0007025
inclination: 98.2266°
perigee height: 636 km
apogee height: 646 km
right ascension of ascending node: 278.4586°
argument of perigee: 19.8320°
revolutions per day: 14.76203602
mean anomaly at epoch: 106.4188°
orbit number at epoch: 7051

The dashed part of the orbit path shows where the satellite is in the earth's shadow,  

DLR